[[{"header":{"parameterUnit":"m.s-1","parameterCategory":1,"la1":30.2991,"la2":30.254,"lo1":-89.0895,"lo2":-89.0444,"dy":0.0017,"dx":0.0017,"nx":28,"ny":28,"refTime":"2025-01-27T03:00:00:Z","depth":0,"parameterNumber":2,"parameterNumberName":"U-component_of_WINDS"},"data":[0,0,0,0,0,0,0,0,0,0,0,0,0,0,0,0,0,0,0,0,0,0,0,0,0,0,0,0,0,0,0,0,0,0,0,0,0,0,0,0,0,0,0,0,0,0,0,0,0,0,0,0,0,0,0,0,0,0,-0.6203,-0.6203,0,-0.6184,-0.6184,-0.6184,-0.6154,-0.6153,-0.6153,-0.6152,-0.6134,-0.6134,-0.6134,0,0,0,0,0,0,0,0,0,0,0,0,0,-0.6214,-0.6214,-0.6203,-0.6203,-0.6203,-0.6184,-0.6184,-0.6184,-0.6154,-0.6153,-0.6152,-0.6152,-0.6134,-0.6134,-0.6134,0,0,0,0,0,0,0,0,0,0,0,0,0,-0.6203,-0.6214,-0.6203,-0.6185,-0.6184,-0.6184,-0.6184,-0.6184,-0.6154,-0.6153,-0.6152,-0.6151,-0.6134,-0.6134,-0.6134,-0.6151,0,0,-0.6134,-0.6134,0,0,0,0,0,0,0,0,-0.6204,-0.6203,-0.6188,-0.6187,-0.6185,-0.617,-0.6181,-0.6173,-0.6154,-0.6165,-0.6152,-0.6151,-0.6147,-0.6146,-0.6144,-0.615,-0.6149,-0.6134,-0.6134,-0.6134,-0.6134,0,0,0,0,0,0,0,-0.6205,-0.6204,-0.6196,-0.6188,-0.6186,-0.6179,-0.6176,-0.6179,-0.6161,-0.6164,-0.6162,-0.616,-0.6146,-0.6144,-0.6143,-0.6149,-0.6134,-0.6134,-0.6134,-0.6134,-0.6166,-0.6167,0,0,0,0,0,0,-0.6208,-0.6205,-0.6196,-0.6195,-0.6192,-0.6179,-0.6176,-0.6176,-0.6161,-0.6158,-0.6161,-0.6159,-0.6144,-0.6143,-0.6143,-0.6161,-0.6134,-0.6134,-0.6134,-0.6165,-0.6166,-0.6167,0,0,0,0,0,0,-0.6208,-0.6208,-0.6197,-0.6199,-0.6197,-0.618,-0.6179,-0.6176,-0.6174,-0.6158,-0.6155,-0.6163,-0.6144,-0.6143,-0.6148,-0.616,-0.6134,-0.6134,-0.6164,-0.6165,-0.6167,-0.6197,0,0,0,0,0,0,-0.6209,-0.6208,-0.6214,-0.6199,-0.6197,-0.6203,-0.618,-0.6176,-0.6174,-0.6171,-0.6159,-0.6156,-0.6143,-0.6149,-0.6149,-0.6159,-0.6134,-0.6163,-0.6165,-0.6166,-0.6195,-0.6199,-0.6203,0,0,0,0,0,-0.6209,-0.6224,-0.6215,-0.6214,-0.6205,-0.6204,-0.6203,-0.6187,-0.6175,-0.6181,-0.6171,-0.6156,-0.6158,-0.6149,-0.6149,-0.616,-0.6162,-0.6164,-0.6166,-0.6193,-0.6199,-0.6203,0,0,0,0,0,0,-0.6241,-0.6222,-0.6211,-0.6222,-0.6215,-0.6199,-0.6206,-0.6193,-0.619,-0.6187,-0.6168,-0.6166,-0.6174,-0.6167,-0.6158,-0.6175,-0.6158,-0.616,-0.6179,-0.6184,-0.6187,-0.6189,-0.6134,0,0,0,0,0,-0.6249,-0.625,-0.6233,-0.6244,-0.6241,-0.6224,-0.6223,-0.6212,-0.6204,-0.6201,-0.6191,-0.6184,-0.6183,-0.6183,-0.6181,-0.6194,-0.619,-0.6201,-0.6205,-0.6208,-0.621,-0.6216,-0.622,-0.6173,-0.6173,-0.6173,0,0,-0.6266,-0.6256,-0.6258,-0.625,-0.6243,-0.6245,-0.6222,-0.6225,-0.6226,-0.6202,-0.6206,-0.6199,-0.619,-0.6199,-0.6203,-0.6194,-0.6222,-0.621,-0.6213,-0.6213,-0.6218,-0.6222,-0.6226,-0.6174,-0.6174,-0.6174,0,0,-0.6298,-0.629,-0.6298,-0.6292,-0.6281,-0.627,-0.6272,-0.6258,-0.6251,-0.6256,-0.6237,-0.6238,-0.6237,-0.6231,-0.6228,-0.6256,-0.6242,-0.6255,-0.6276,-0.6282,-0.6285,-0.6289,-0.6298,-0.6302,-0.6257,-0.6257,-0.6257,0,-0.6321,-0.6322,-0.6304,-0.6308,-0.6305,-0.6282,-0.6289,-0.6284,-0.6274,-0.6272,-0.6262,-0.6259,-0.6252,-0.6259,-0.6266,-0.6264,-0.6265,-0.6257,-0.6286,-0.6289,-0.6292,-0.6301,-0.6305,-0.6259,-0.6259,-0.6259,-0.6259,0,-0.6351,-0.6352,-0.6359,-0.6349,-0.6347,-0.6353,-0.6335,-0.6335,-0.6323,-0.6312,-0.6317,-0.6306,-0.6302,-0.6302,-0.6291,-0.6308,-0.6303,-0.629,-0.6273,-0.6298,-0.6307,-0.631,-0.6262,-0.6261,-0.626,-0.626,0,0,-0.6404,-0.6382,-0.6385,-0.638,-0.6366,-0.6367,-0.6371,-0.6366,-0.6366,-0.6359,-0.6362,-0.6361,-0.6348,-0.6345,-0.6332,-0.6337,-0.6359,-0.6324,-0.6323,-0.6331,-0.6377,-0.6387,-0.6391,-0.635,-0.6351,-0.6351,-0.6377,0,-0.6433,-0.6439,-0.6422,-0.6432,-0.6433,-0.641,-0.6414,-0.6405,-0.6395,-0.6394,-0.6383,-0.6382,-0.6366,-0.6364,-0.6367,-0.6356,-0.6369,-0.6354,-0.6353,-0.6353,-0.6356,-0.6396,-0.6406,-0.6432,-0.6381,-0.6381,-0.6382,0,-0.6469,-0.6463,-0.6473,-0.6457,-0.6457,-0.6461,-0.6454,-0.6453,-0.6443,-0.6435,-0.643,-0.6415,-0.6418,-0.6401,-0.6404,-0.6395,-0.6393,-0.6387,-0.6388,-0.6388,-0.6369,-0.6397,-0.644,-0.6444,-0.6386,-0.6386,-0.6386,0,-0.6506,-0.6501,-0.6506,-0.6502,-0.6484,-0.6487,-0.648,-0.6469,-0.6467,-0.6461,-0.6459,-0.6453,-0.6451,-0.6447,-0.643,-0.642,-0.6436,-0.6417,-0.6429,-0.643,-0.6435,-0.6435,-0.6478,-0.6433,-0.6433,-0.6433,-0.6433,0,-0.6541,-0.6549,-0.6523,-0.6526,-0.6533,-0.6513,-0.652,-0.6511,-0.6501,-0.6502,-0.6482,-0.6483,-0.6462,-0.646,-0.6448,-0.6452,-0.6451,-0.6445,-0.6441,-0.6447,-0.6448,-0.6446,-0.6444,-0.6434,-0.6433,-0.6433,-0.6433,0,-0.6585,-0.6568,-0.6572,-0.6554,-0.655,-0.6556,-0.6541,-0.6543,-0.6531,-0.6532,-0.6531,-0.6512,-0.651,-0.6493,-0.6487,-0.6478,-0.6487,-0.648,-0.6491,-0.6489,-0.6501,-0.6501,-0.6546,-0.6551,-0.6502,-0.6503,-0.6503,0,-0.6609,-0.6614,-0.6596,-0.6595,-0.6588,-0.6587,-0.6584,-0.6564,-0.6562,-0.655,-0.6553,-0.6549,-0.6544,-0.6541,-0.6527,-0.6521,-0.6514,-0.653,-0.6514,-0.6518,-0.6515,-0.6515,-0.6515,-0.6535,-0.6535,-0.6536,-0.6536,0,-0.6653,-0.6644,-0.6641,-0.6634,-0.663,-0.6624,-0.6617,-0.6617,-0.6595,-0.6593,-0.659,-0.6586,-0.6579,-0.6575,-0.6567,-0.6559,-0.6544,-0.6541,-0.6544,-0.655,-0.6556,-0.6553,-0.6501,-0.6541,-0.654,-0.654,-0.654,-0.6539,-0.6688,-0.6691,-0.6678,-0.6675,-0.6667,-0.666,-0.6661,-0.6648,-0.6645,-0.6637,-0.6625,-0.6623,-0.6612,-0.66,-0.6593,-0.6591,-0.6582,-0.6586,-0.6587,-0.6588,-0.6591,-0.6555,-0.659,-0.6589,-0.6589,-0.6589,-0.6589,0,-0.6731,-0.6722,-0.6718,-0.6708,-0.6705,-0.669,-0.668,-0.6679,-0.6677,-0.6667,-0.6663,-0.6659,-0.6654,-0.6639,-0.6633,-0.6634,-0.6627,-0.6633,-0.6633,-0.6631,-0.6599,-0.6598,-0.6639,-0.6639,-0.6639,-0.6639,-0.6639,-0.6639,-0.6753,-0.6757,-0.6746,-0.6746,-0.6736,-0.6734,-0.6729,-0.6723,-0.6715,-0.6711,-0.6707,-0.6696,-0.6684,-0.6677,-0.6672,-0.6667,-0.6666,-0.6674,-0.6668,-0.6638,-0.6634,-0.6629,-0.6628,-0.6674,-0.6674,-0.67,-0.67,-0.67]},{"header":{"parameterUnit":"m.s-1","parameterCategory":1,"la1":30.2991,"la2":30.254,"lo1":-89.0895,"lo2":-89.0444,"dy":0.0017,"dx":0.0017,"nx":28,"ny":28,"refTime":"2025-01-27T03:00:00:Z","depth":0,"parameterNumber":3,"parameterNumberName":"V-component_of_WINDS"},"data":[0,0,0,0,0,0,0,0,0,0,0,0,0,0,0,0,0,0,0,0,0,0,0,0,0,0,0,0,0,0,0,0,0,0,0,0,0,0,0,0,0,0,0,0,0,0,0,0,0,0,0,0,0,0,0,0,0,0,-4.014,-4.0141,0,-4.0194,-4.0195,-4.0196,-4.0157,-4.0155,-4.0153,-4.0152,-4.0204,-4.0207,-4.021,0,0,0,0,0,0,0,0,0,0,0,0,0,-4.0,-4.0002,-4.014,-4.0141,-4.0141,-4.0194,-4.0195,-4.0196,-4.0157,-4.0155,-4.0153,-4.0151,-4.0203,-4.0206,-4.021,0,0,0,0,0,0,0,0,0,0,0,0,0,-4.0058,-4.0003,-4.014,-4.0128,-4.0128,-4.0194,-4.0195,-4.0196,-4.0158,-4.0155,-4.0152,-4.015,-4.0202,-4.0206,-4.0211,-4.029,0,0,-4.0224,-4.0226,0,0,0,0,0,0,0,0,-4.0055,-4.0063,-4.0129,-4.0129,-4.0129,-4.0166,-4.0165,-4.0227,-4.0158,-4.0146,-4.0152,-4.0149,-4.0193,-4.0198,-4.0214,-4.0292,-4.0294,-4.0225,-4.0227,-4.0229,-4.0231,0,0,0,0,0,0,0,-4.0051,-4.0061,-4.0161,-4.013,-4.013,-4.012,-4.0125,-4.0176,-4.0183,-4.0147,-4.0144,-4.0152,-4.0193,-4.021,-4.0215,-4.0295,-4.0224,-4.0228,-4.0231,-4.0233,-4.0441,-4.0444,0,0,0,0,0,0,-4.0048,-4.0057,-4.016,-4.0163,-4.0085,-4.0124,-4.013,-4.0157,-4.0183,-4.0184,-4.0154,-4.015,-4.0203,-4.021,-4.0217,-4.0312,-4.0229,-4.0233,-4.0236,-4.0438,-4.0442,-4.0445,0,0,0,0,0,0,-4.0045,-4.0058,-4.0157,-4.011,-4.0121,-4.013,-4.0159,-4.0159,-4.0176,-4.0188,-4.0188,-4.017,-4.0202,-4.021,-4.0272,-4.0313,-4.0235,-4.0239,-4.0435,-4.044,-4.0443,-4.0502,0,0,0,0,0,0,-4.0041,-4.0057,-4.0088,-4.0111,-4.0124,-4.0213,-4.0162,-4.0162,-4.0185,-4.018,-4.0203,-4.0205,-4.02,-4.0266,-4.0277,-4.0318,-4.0243,-4.0431,-4.0437,-4.0442,-4.0496,-4.0508,-4.0517,0,0,0,0,0,-4.0037,-4.0101,-4.0089,-4.0102,-4.0163,-4.0216,-4.0223,-4.0218,-4.0188,-4.0219,-4.0226,-4.0204,-4.0307,-4.0272,-4.0284,-4.0327,-4.0429,-4.0436,-4.0442,-4.0492,-4.0505,-4.0517,0,0,0,0,0,0,-4.0081,-4.0104,-4.0091,-4.0165,-4.0189,-4.0209,-4.0247,-4.0232,-4.0264,-4.0258,-4.0248,-4.0254,-4.0319,-4.0329,-4.0291,-4.0405,-4.0363,-4.0372,-4.0397,-4.041,-4.042,-4.0417,-4.0247,0,0,0,0,0,-4.01,-4.0141,-4.0158,-4.0222,-4.0235,-4.0239,-4.0262,-4.0256,-4.0279,-4.0289,-4.0301,-4.0324,-4.0361,-4.0386,-4.0421,-4.0497,-4.0502,-4.0533,-4.0543,-4.0552,-4.056,-4.0602,-4.0616,-4.0466,-4.0466,-4.0466,0,0,-4.0138,-4.0156,-4.0182,-4.0231,-4.0249,-4.0292,-4.0248,-4.0295,-4.0326,-4.0296,-4.0355,-4.0365,-4.039,-4.046,-4.0491,-4.047,-4.0602,-4.056,-4.0567,-4.057,-4.061,-4.0624,-4.0637,-4.047,-4.047,-4.0469,0,0,-4.023,-4.0248,-4.0303,-4.0322,-4.035,-4.0353,-4.0366,-4.0389,-4.0395,-4.0455,-4.0433,-4.047,-4.0534,-4.0553,-4.0571,-4.0672,-4.0653,-4.0683,-4.0738,-4.0779,-4.0791,-4.0801,-4.0838,-4.0851,-4.0691,-4.0692,-4.0692,0,-4.0274,-4.0339,-4.0333,-4.0383,-4.0405,-4.038,-4.0436,-4.0454,-4.0492,-4.0508,-4.0484,-4.0565,-4.058,-4.0654,-4.0679,-4.0694,-4.0709,-4.0681,-4.079,-4.08,-4.081,-4.0845,-4.0858,-4.0695,-4.0695,-4.0694,-4.0694,0,-4.0392,-4.0437,-4.0479,-4.0517,-4.0544,-4.0596,-4.0598,-4.0625,-4.0617,-4.0622,-4.0684,-4.0701,-4.0739,-4.0756,-4.0748,-4.083,-4.0816,-4.0791,-4.0749,-4.0828,-4.0861,-4.0874,-4.07,-4.0699,-4.0698,-4.0697,0,0,-4.0513,-4.0549,-4.0565,-4.0582,-4.0612,-4.0646,-4.0697,-4.0736,-4.0761,-4.0787,-4.083,-4.0885,-4.0863,-4.0884,-4.0877,-4.0913,-4.0993,-4.0884,-4.0884,-4.0904,-4.1085,-4.1104,-4.1119,-4.098,-4.0983,-4.0985,-4.1083,0,-4.0608,-4.0699,-4.0695,-4.0779,-4.0821,-4.0799,-4.0843,-4.0866,-4.0872,-4.0908,-4.0914,-4.0954,-4.0921,-4.0934,-4.0968,-4.0976,-4.1029,-4.0968,-4.1019,-4.1021,-4.1015,-4.1136,-4.1156,-4.1248,-4.1095,-4.1098,-4.1099,0,-4.073,-4.0763,-4.0852,-4.0877,-4.0894,-4.0934,-4.097,-4.1005,-4.103,-4.1032,-4.1056,-4.1043,-4.1094,-4.105,-4.112,-4.1079,-4.11,-4.1106,-4.111,-4.1115,-4.1065,-4.1145,-4.1277,-4.1292,-4.1119,-4.1117,-4.1116,0,-4.0811,-4.0877,-4.0939,-4.0955,-4.0985,-4.1014,-4.1027,-4.105,-4.1074,-4.1105,-4.112,-4.1156,-4.1176,-4.1204,-4.1202,-4.1169,-4.1273,-4.1228,-4.1276,-4.1276,-4.1299,-4.1298,-4.1437,-4.1311,-4.1311,-4.1311,-4.131,0,-4.0917,-4.0973,-4.0976,-4.1015,-4.1076,-4.1071,-4.1132,-4.1142,-4.1162,-4.1202,-4.1184,-4.1221,-4.1215,-4.1252,-4.125,-4.1309,-4.1318,-4.132,-4.1319,-4.1323,-4.1323,-4.1336,-4.133,-4.1314,-4.1313,-4.1313,-4.1312,0,-4.1018,-4.1022,-4.1089,-4.1112,-4.112,-4.1164,-4.1183,-4.1219,-4.1224,-4.1274,-4.1286,-4.1293,-4.1336,-4.1336,-4.1384,-4.1383,-4.1455,-4.1446,-4.1448,-4.1446,-4.1494,-4.149,-4.1648,-4.1669,-4.1528,-4.153,-4.1531,0,-4.1086,-4.1128,-4.1157,-4.1183,-4.1199,-4.124,-4.1265,-4.1262,-4.1288,-4.1321,-4.1353,-4.1394,-4.1427,-4.1496,-4.1505,-4.1542,-4.1534,-4.1587,-4.154,-4.1542,-4.1536,-4.1534,-4.1539,-4.1597,-4.1598,-4.16,-4.1601,0,-4.1206,-4.1206,-4.1244,-4.1283,-4.1314,-4.1344,-4.1371,-4.1393,-4.1393,-4.1424,-4.1468,-4.1494,-4.1544,-4.1585,-4.1621,-4.1634,-4.1618,-4.1616,-4.1629,-4.1633,-4.1632,-4.1634,-4.1474,-4.1612,-4.1611,-4.161,-4.1609,-4.1609,-4.1293,-4.133,-4.1357,-4.1399,-4.142,-4.1447,-4.1482,-4.1492,-4.153,-4.1572,-4.1567,-4.1616,-4.164,-4.1687,-4.1703,-4.1741,-4.1722,-4.1741,-4.1746,-4.1751,-4.1757,-4.1626,-4.1747,-4.1747,-4.1747,-4.1746,-4.1746,0,-4.1413,-4.1429,-4.1468,-4.1509,-4.1543,-4.1526,-4.1555,-4.1584,-4.1629,-4.1653,-4.1687,-4.1738,-4.1778,-4.1791,-4.1829,-4.1857,-4.1851,-4.1868,-4.1866,-4.1869,-4.1771,-4.1756,-4.1872,-4.1872,-4.1872,-4.1872,-4.1872,-4.1872,-4.1479,-4.1542,-4.1546,-4.1618,-4.1634,-4.1684,-4.1702,-4.1727,-4.1746,-4.1805,-4.1839,-4.1847,-4.1867,-4.1907,-4.1943,-4.1946,-4.1961,-4.1981,-4.1981,-4.1889,-4.1876,-4.1864,-4.185,-4.1985,-4.1985,-4.2076,-4.2077,-4.2078]}]]